[[{"header":{"parameterUnit":"m.s-1","parameterCategory":2,"la1":30.2991,"la2":30.254,"lo1":-89.0895,"lo2":-89.0444,"dy":0.0017,"dx":0.0017,"nx":28,"ny":28,"refTime":"2024-12-02T09:00:00:Z","depth":"0","parameterNumber":2,"parameterNumberName":"U-component_of_CURRENTS"},"data":[0,0,0,0,0,0,0,0,0,0,0,0,0,0,0,0,0,0,0,0,0,0,0,0,0,0,0,0,0,0,0,0,0,0,0,0,0,0,0,0,0,0,0,0,0,0,0,0,0,0,0,0,0,0,0,0,0,0,0.2302,0.2302,0,0.2351,0.2351,0.2351,0.2357,0.2357,0.2357,0.2357,0.2356,0.2356,0.2356,0,0,0,0,0,0,0,0,0,0,0,0,0,0.2205,0.2207,0.2302,0.2303,0.2303,0.235,0.2351,0.2351,0.2357,0.2357,0.2357,0.2356,0.2356,0.2356,0.2356,0,0,0,0,0,0,0,0,0,0,0,0,0,0.2248,0.2208,0.2302,0.2314,0.2316,0.235,0.2351,0.2351,0.2357,0.2357,0.2357,0.2356,0.2356,0.2356,0.2357,0.2366,0,0,0.2358,0.2358,0,0,0,0,0,0,0,0,0.2245,0.2251,0.2311,0.2313,0.2315,0.235,0.2317,0.2355,0.2358,0.2339,0.2357,0.2356,0.2351,0.2352,0.2359,0.2366,0.2366,0.2358,0.2358,0.2358,0.2358,0,0,0,0,0,0,0,0.2242,0.2249,0.2319,0.2312,0.2315,0.2314,0.232,0.2324,0.2344,0.2341,0.2342,0.2351,0.2351,0.2359,0.2359,0.2366,0.2358,0.2358,0.2358,0.2358,0.2404,0.2405,0,0,0,0,0,0,0.2243,0.2246,0.2317,0.232,0.2281,0.2317,0.2322,0.2337,0.2345,0.2347,0.2351,0.2351,0.2358,0.2359,0.2359,0.2398,0.2358,0.2358,0.2358,0.2403,0.2404,0.2405,0,0,0,0,0,0,0.224,0.2249,0.2315,0.2286,0.2295,0.2319,0.2335,0.2338,0.2349,0.2354,0.2354,0.2359,0.2358,0.2359,0.2373,0.2397,0.2358,0.2359,0.2401,0.2403,0.2404,0.2458,0,0,0,0,0,0,0.2237,0.2248,0.2253,0.2286,0.2296,0.2342,0.2336,0.2339,0.2356,0.2356,0.2361,0.236,0.2358,0.2373,0.2373,0.2396,0.2359,0.24,0.2402,0.2404,0.2455,0.2461,0.2466,0,0,0,0,0,0.2234,0.2246,0.2254,0.2262,0.2305,0.2343,0.2349,0.2362,0.2357,0.2368,0.2372,0.236,0.2385,0.2374,0.2374,0.2398,0.2399,0.2401,0.2404,0.2452,0.246,0.2466,0,0,0,0,0,0,0.2201,0.225,0.2258,0.2282,0.2313,0.2345,0.2357,0.2365,0.2378,0.2375,0.2373,0.2373,0.2397,0.2388,0.2376,0.2416,0.239,0.2393,0.2427,0.2434,0.244,0.2457,0.2359,0,0,0,0,0,0.22,0.2226,0.2266,0.2286,0.2302,0.2329,0.2343,0.2357,0.2376,0.2381,0.2386,0.2392,0.2407,0.2412,0.2421,0.244,0.2451,0.2456,0.2462,0.2467,0.2481,0.251,0.252,0.2412,0.2412,0.2412,0,0,0.2189,0.2222,0.2234,0.2282,0.2304,0.2339,0.2336,0.2366,0.2395,0.2379,0.2409,0.2412,0.2417,0.2445,0.2454,0.244,0.2506,0.2469,0.2474,0.2486,0.2514,0.2524,0.2534,0.2414,0.2414,0.2413,0,0,0.2194,0.2216,0.2243,0.2275,0.232,0.2343,0.2354,0.2391,0.2406,0.2436,0.2437,0.2458,0.2469,0.2489,0.2498,0.2539,0.2536,0.2536,0.2579,0.2607,0.2616,0.2625,0.2666,0.2678,0.2537,0.2538,0.2538,0,0.2177,0.2224,0.2254,0.2293,0.2322,0.2347,0.2383,0.2408,0.2445,0.2466,0.2451,0.2498,0.2497,0.2548,0.2564,0.2555,0.2571,0.2552,0.2616,0.2624,0.2632,0.2672,0.2684,0.254,0.254,0.254,0.2539,0,0.221,0.2247,0.2266,0.2328,0.236,0.2396,0.2441,0.247,0.2486,0.2512,0.2559,0.2567,0.2597,0.26,0.2596,0.2654,0.265,0.262,0.2599,0.2646,0.2685,0.2697,0.2544,0.2543,0.2543,0.2542,0,0,0.2177,0.227,0.2277,0.2314,0.2384,0.2415,0.2469,0.253,0.2569,0.2597,0.2649,0.2679,0.2684,0.2695,0.2694,0.2719,0.2788,0.2696,0.2696,0.2741,0.2865,0.2935,0.2954,0.2766,0.2768,0.277,0.2876,0,0.2194,0.2269,0.2314,0.2381,0.2424,0.2472,0.252,0.2575,0.2618,0.2672,0.2698,0.2741,0.272,0.2738,0.2764,0.2782,0.2819,0.2763,0.2811,0.2813,0.2872,0.297,0.2863,0.2955,0.2887,0.2889,0.2891,0,0.2211,0.2266,0.2331,0.2421,0.2442,0.2478,0.2566,0.2614,0.2696,0.2733,0.2786,0.2808,0.2871,0.283,0.2904,0.2868,0.288,0.2887,0.289,0.2947,0.2905,0.2895,0.2979,0.2931,0.2908,0.2907,0.2906,0,0.2179,0.2276,0.2327,0.2358,0.2458,0.2489,0.2537,0.2622,0.2678,0.2772,0.2824,0.2889,0.2933,0.2956,0.2997,0.2948,0.3078,0.3003,0.3083,0.3087,0.3004,0.3,0.305,0.3061,0.306,0.306,0.306,0,0.2182,0.2223,0.2312,0.234,0.2397,0.2469,0.2536,0.2598,0.27,0.278,0.2843,0.2926,0.2965,0.3045,0.3046,0.3138,0.3123,0.3132,0.3135,0.3023,0.3019,0.2978,0.2949,0.3064,0.3063,0.3062,0.3062,0,0.2136,0.2197,0.2258,0.2354,0.238,0.2413,0.2524,0.2579,0.2683,0.2793,0.2831,0.2973,0.3095,0.3155,0.3224,0.3224,0.3215,0.3308,0.3197,0.3187,0.3203,0.3181,0.3135,0.3032,0.3405,0.3408,0.341,0,0.212,0.2145,0.224,0.2266,0.2303,0.2371,0.2416,0.2542,0.2615,0.2827,0.2877,0.3054,0.3165,0.3333,0.3377,0.3445,0.3322,0.3392,0.3283,0.3242,0.3217,0.3063,0.2965,0.3185,0.3185,0.3186,0.3186,0,0.2079,0.2106,0.215,0.2208,0.2253,0.2316,0.2398,0.2455,0.2622,0.272,0.2876,0.2988,0.3225,0.3287,0.3443,0.3455,0.3258,0.3401,0.336,0.3086,0.2914,0.2802,0.309,0.3187,0.3187,0.3187,0.3187,0.3187,0.2025,0.2039,0.209,0.2136,0.219,0.2235,0.2251,0.2361,0.2451,0.259,0.2777,0.2911,0.315,0.3358,0.3366,0.3382,0.3305,0.3285,0.3274,0.3131,0.2998,0.3335,0.3439,0.344,0.3441,0.3442,0.3443,0,0.1949,0.1977,0.2019,0.2061,0.2079,0.2144,0.2218,0.2224,0.2276,0.2466,0.2584,0.2833,0.2985,0.3164,0.3322,0.3254,0.3027,0.3186,0.2897,0.2811,0.312,0.3079,0.3108,0.3108,0.3108,0.3108,0.3108,0.3108,0.1905,0.1909,0.1937,0.1933,0.1963,0.195,0.1963,0.1994,0.21,0.2228,0.2374,0.255,0.296,0.3263,0.3287,0.3187,0.2909,0.2819,0.2788,0.2989,0.2994,0.2998,0.2953,0.2954,0.2954,0.231,0.2305,0.2302]},{"header":{"parameterUnit":"m.s-1","parameterCategory":2,"la1":30.2991,"la2":30.254,"lo1":-89.0895,"lo2":-89.0444,"dy":0.0017,"dx":0.0017,"nx":28,"ny":28,"refTime":"2024-12-02T09:00:00:Z","depth":"0","parameterNumber":3,"parameterNumberName":"V-component_of_CURRENTS"},"data":[0,0,0,0,0,0,0,0,0,0,0,0,0,0,0,0,0,0,0,0,0,0,0,0,0,0,0,0,0,0,0,0,0,0,0,0,0,0,0,0,0,0,0,0,0,0,0,0,0,0,0,0,0,0,0,0,0,0,-0.0447,-0.0448,0,-0.0517,-0.0517,-0.0518,-0.0564,-0.0564,-0.0565,-0.0565,-0.0658,-0.066,-0.0662,0,0,0,0,0,0,0,0,0,0,0,0,0,-0.0404,-0.0404,-0.0447,-0.0448,-0.0449,-0.0517,-0.0518,-0.0519,-0.0564,-0.0564,-0.0565,-0.0565,-0.0657,-0.066,-0.0663,0,0,0,0,0,0,0,0,0,0,0,0,0,-0.0443,-0.0404,-0.0447,-0.0479,-0.0483,-0.0516,-0.0518,-0.0519,-0.0564,-0.0564,-0.0565,-0.0565,-0.0656,-0.066,-0.0663,-0.0676,0,0,-0.0673,-0.0675,0,0,0,0,0,0,0,0,-0.0441,-0.0445,-0.0474,-0.0477,-0.0481,-0.0532,-0.0537,-0.0572,-0.0564,-0.0533,-0.0565,-0.0565,-0.0617,-0.0624,-0.0637,-0.068,-0.0684,-0.0674,-0.0676,-0.0677,-0.0678,0,0,0,0,0,0,0,-0.0438,-0.0442,-0.0475,-0.0474,-0.0479,-0.0508,-0.0513,-0.0544,-0.0573,-0.0536,-0.054,-0.0547,-0.062,-0.0633,-0.0639,-0.0686,-0.0674,-0.0677,-0.0679,-0.068,-0.0759,-0.0759,0,0,0,0,0,0,-0.0425,-0.0439,-0.0473,-0.0477,-0.0461,-0.0508,-0.0514,-0.0515,-0.0572,-0.0581,-0.0546,-0.0548,-0.0627,-0.0635,-0.0643,-0.0679,-0.0677,-0.068,-0.0682,-0.0759,-0.0759,-0.0759,0,0,0,0,0,0,-0.0424,-0.0427,-0.047,-0.046,-0.0467,-0.0508,-0.0509,-0.0517,-0.053,-0.058,-0.0589,-0.0552,-0.0628,-0.0638,-0.067,-0.0683,-0.0682,-0.0685,-0.0759,-0.0759,-0.0759,-0.0742,0,0,0,0,0,0,-0.0422,-0.0426,-0.0422,-0.0459,-0.0467,-0.0484,-0.0509,-0.0518,-0.0533,-0.0537,-0.0587,-0.0597,-0.0629,-0.0664,-0.0673,-0.0687,-0.0687,-0.0759,-0.0759,-0.0759,-0.0742,-0.0741,-0.074,0,0,0,0,0,-0.0421,-0.0411,-0.0421,-0.0426,-0.046,-0.0483,-0.049,-0.0521,-0.0533,-0.0535,-0.0572,-0.0595,-0.0672,-0.0667,-0.0677,-0.0693,-0.0759,-0.0759,-0.0759,-0.0742,-0.0741,-0.074,0,0,0,0,0,0,-0.0387,-0.0416,-0.0428,-0.0427,-0.045,-0.0491,-0.0495,-0.0516,-0.0546,-0.0549,-0.0596,-0.0608,-0.0641,-0.0664,-0.0658,-0.0715,-0.0719,-0.0721,-0.0703,-0.0702,-0.0701,-0.0707,-0.069,0,0,0,0,0,-0.0377,-0.038,-0.0412,-0.041,-0.0419,-0.0455,-0.0468,-0.0488,-0.052,-0.0534,-0.0571,-0.061,-0.0649,-0.0672,-0.0704,-0.0734,-0.0765,-0.075,-0.0749,-0.0748,-0.0759,-0.0825,-0.0831,-0.076,-0.076,-0.076,0,0,-0.0363,-0.038,-0.0381,-0.0404,-0.0424,-0.0437,-0.0464,-0.0477,-0.0495,-0.0539,-0.057,-0.0605,-0.0654,-0.0691,-0.0708,-0.0714,-0.0778,-0.0749,-0.0748,-0.0759,-0.0826,-0.0833,-0.0839,-0.076,-0.076,-0.076,0,0,-0.0339,-0.0351,-0.0346,-0.0365,-0.0391,-0.0416,-0.0417,-0.0454,-0.0476,-0.0508,-0.0548,-0.0593,-0.0641,-0.0691,-0.072,-0.0733,-0.0767,-0.0735,-0.0745,-0.0807,-0.0814,-0.0821,-0.0841,-0.085,-0.074,-0.074,-0.074,0,-0.032,-0.0323,-0.0348,-0.0353,-0.0367,-0.0404,-0.0407,-0.0436,-0.0481,-0.0505,-0.0512,-0.0611,-0.0648,-0.0718,-0.0725,-0.0734,-0.0759,-0.0745,-0.0808,-0.0815,-0.0822,-0.0842,-0.0851,-0.0739,-0.0739,-0.0739,-0.0739,0,-0.03,-0.0304,-0.0302,-0.0324,-0.0341,-0.0348,-0.039,-0.0411,-0.0441,-0.0481,-0.0544,-0.0604,-0.0667,-0.0686,-0.0713,-0.0783,-0.0778,-0.0795,-0.0812,-0.0828,-0.0847,-0.0858,-0.0738,-0.0738,-0.0738,-0.0739,0,0,-0.0251,-0.0281,-0.0281,-0.0286,-0.0326,-0.0334,-0.0366,-0.041,-0.0428,-0.0493,-0.0532,-0.0623,-0.0662,-0.0698,-0.0743,-0.0805,-0.0866,-0.082,-0.0824,-0.0842,-0.0977,-0.0911,-0.0916,-0.0897,-0.0899,-0.0901,-0.096,0,-0.0228,-0.0225,-0.0254,-0.0256,-0.0257,-0.0306,-0.0329,-0.0376,-0.0421,-0.0464,-0.0559,-0.0603,-0.0665,-0.0685,-0.0768,-0.0835,-0.0898,-0.0847,-0.0958,-0.096,-0.0903,-0.0928,-0.0862,-0.0904,-0.0971,-0.0972,-0.0974,0,-0.0199,-0.0202,-0.0195,-0.022,-0.0224,-0.0235,-0.0275,-0.0302,-0.0383,-0.0417,-0.0505,-0.0564,-0.0671,-0.0705,-0.0874,-0.0836,-0.0911,-0.0969,-0.0973,-0.0931,-0.0915,-0.0905,-0.0921,-0.1101,-0.099,-0.0989,-0.0988,0,-0.0146,-0.0161,-0.0152,-0.0161,-0.0195,-0.0204,-0.0225,-0.0288,-0.029,-0.0382,-0.0382,-0.0542,-0.0573,-0.0732,-0.0853,-0.0869,-0.1011,-0.1046,-0.1063,-0.1057,-0.1033,-0.1021,-0.1242,-0.1173,-0.1173,-0.1173,-0.1173,0,-0.0111,-0.0102,-0.0123,-0.0118,-0.0097,-0.0148,-0.0137,-0.0181,-0.0221,-0.0194,-0.0348,-0.0342,-0.058,-0.0681,-0.0836,-0.0963,-0.1004,-0.1071,-0.108,-0.1018,-0.1005,-0.1185,-0.13,-0.1175,-0.1175,-0.1174,-0.1174,0,-0.0052,-0.0072,-0.0053,-0.0073,-0.0069,-0.0053,-0.0046,-0.0031,-0.0086,-0.005,-0.0064,-0.0189,-0.0306,-0.0527,-0.0743,-0.0887,-0.113,-0.1078,-0.0964,-0.0959,-0.1145,-0.1259,-0.1488,-0.1555,-0.1126,-0.1125,-0.1124,0,-0.0022,-0.0006,0.0007,0.0037,0.0035,0.0057,0.0089,0.0047,0.0088,0.0076,0.0121,0.0013,-0.0004,-0.031,-0.0588,-0.0847,-0.1059,-0.0975,-0.1012,-0.1155,-0.1292,-0.1384,-0.1432,-0.0967,-0.0965,-0.0963,-0.0962,0,0.0044,0.005,0.0072,0.0142,0.0185,0.0236,0.0284,0.0345,0.0336,0.0382,0.0451,0.0436,0.0178,-0.0042,-0.041,-0.0615,-0.1088,-0.0944,-0.1152,-0.1237,-0.1298,-0.1363,-0.0905,-0.0946,-0.0947,-0.0949,-0.0949,-0.095,0.0106,0.0146,0.0189,0.0261,0.0322,0.0424,0.0499,0.0579,0.0685,0.0791,0.0749,0.0784,0.042,-0.0055,-0.036,-0.0892,-0.0947,-0.1066,-0.1204,-0.1292,-0.1339,-0.0815,-0.0827,-0.0828,-0.0829,-0.0829,-0.083,0,0.0196,0.0241,0.031,0.04,0.0502,0.0506,0.0644,0.0742,0.092,0.1023,0.1102,0.0972,0.0527,0.0005,-0.0686,-0.1079,-0.1262,-0.1338,-0.1498,-0.1544,-0.1125,-0.1098,-0.1096,-0.1096,-0.1096,-0.1095,-0.1095,-0.1095,0.0245,0.0336,0.0374,0.0554,0.0627,0.0777,0.0874,0.1022,0.1131,0.1296,0.1339,0.1331,0.0952,-0.0337,-0.1224,-0.1453,-0.1784,-0.183,-0.2018,-0.1774,-0.176,-0.1748,-0.1752,-0.1887,-0.1888,-0.2354,-0.2359,-0.2362]}],[{"header":{"parameterUnit":"m.s-1","parameterCategory":2,"la1":30.2991,"la2":30.254,"lo1":-89.0895,"lo2":-89.0444,"dy":0.0017,"dx":0.0017,"nx":28,"ny":28,"refTime":"2024-12-02T09:00:00:Z","depth":"2","parameterNumber":2,"parameterNumberName":"U-component_of_CURRENTS"},"data":[0,0,0,0,0,0,0,0,0,0,0,0,0,0,0,0,0,0,0,0,0,0,0,0,0,0,0,0,0,0,0,0,0,0,0,0,0,0,0,0,0,0,0,0,0,0,0,0,0,0,0,0,0,0,0,0,0,0,0.2128,0.2129,0,0.2173,0.2173,0.2173,0.2187,0.2187,0.2187,0.2187,0.2201,0.2202,0.2202,0,0,0,0,0,0,0,0,0,0,0,0,0,0.2041,0.2043,0.2128,0.2129,0.213,0.2173,0.2173,0.2174,0.2187,0.2187,0.2187,0.2187,0.2201,0.2202,0.2202,0,0,0,0,0,0,0,0,0,0,0,0,0,0.208,0.2043,0.2128,0.2143,0.2145,0.2173,0.2173,0.2174,0.2187,0.2187,0.2187,0.2187,0.2201,0.2202,0.2202,0.2206,0,0,0.2204,0.2204,0,0,0,0,0,0,0,0,0.2078,0.2083,0.214,0.2142,0.2145,0.2176,0.2148,0.2184,0.2187,0.2169,0.2187,0.2187,0.2192,0.2193,0.2199,0.2207,0.2208,0.2204,0.2204,0.2205,0.2205,0,0,0,0,0,0,0,0.2075,0.2081,0.2144,0.2141,0.2144,0.2143,0.2149,0.2155,0.2178,0.217,0.2172,0.2181,0.2192,0.2198,0.2199,0.2208,0.2204,0.2205,0.2205,0.2205,0.2265,0.2266,0,0,0,0,0,0,0.2075,0.2078,0.2142,0.2145,0.2113,0.2145,0.2151,0.2164,0.2178,0.2181,0.2181,0.2181,0.2197,0.2198,0.22,0.2255,0.2205,0.2205,0.2206,0.2264,0.2265,0.2267,0,0,0,0,0,0,0.2073,0.208,0.214,0.2114,0.2122,0.2147,0.2162,0.2165,0.2181,0.2187,0.2189,0.2194,0.2197,0.2199,0.2221,0.2254,0.2205,0.2206,0.2262,0.2264,0.2266,0.2335,0,0,0,0,0,0,0.207,0.2079,0.2089,0.2114,0.2124,0.2169,0.2162,0.2166,0.2187,0.2188,0.2199,0.22,0.2197,0.222,0.2221,0.2254,0.2206,0.2261,0.2263,0.2265,0.2331,0.2339,0.2345,0,0,0,0,0,0.2067,0.2081,0.2089,0.2097,0.2136,0.2171,0.2176,0.2191,0.2188,0.2203,0.221,0.22,0.2236,0.2221,0.2223,0.2256,0.226,0.2262,0.2265,0.2328,0.2337,0.2345,0,0,0,0,0,0,0.2042,0.2085,0.2094,0.2118,0.2148,0.2174,0.2188,0.2197,0.2215,0.2216,0.2213,0.2216,0.2249,0.224,0.2224,0.228,0.2247,0.225,0.2294,0.2303,0.231,0.2335,0.2207,0,0,0,0,0,0.2043,0.2071,0.2105,0.2127,0.2141,0.2165,0.218,0.2196,0.2215,0.2223,0.2232,0.2241,0.226,0.227,0.2281,0.2309,0.2319,0.2331,0.2338,0.2345,0.2366,0.2399,0.2412,0.2276,0.2276,0.2276,0,0,0.2038,0.2068,0.2081,0.2125,0.2146,0.2179,0.2174,0.2207,0.2239,0.2221,0.2261,0.2266,0.2272,0.2309,0.2323,0.2307,0.239,0.2348,0.2353,0.2372,0.2404,0.2417,0.2429,0.2278,0.2277,0.2277,0,0,0.205,0.2071,0.2099,0.2128,0.2172,0.2193,0.2205,0.2241,0.2261,0.2298,0.2298,0.2329,0.2344,0.237,0.238,0.2433,0.2426,0.2428,0.2489,0.2521,0.2533,0.2544,0.2583,0.2596,0.2433,0.2434,0.2434,0,0.2041,0.2086,0.2111,0.2148,0.2177,0.2201,0.2239,0.2266,0.2306,0.2335,0.2318,0.238,0.238,0.2445,0.2466,0.2453,0.2467,0.2456,0.2532,0.2543,0.2552,0.259,0.2603,0.2437,0.2437,0.2436,0.2436,0,0.2076,0.2114,0.2133,0.2193,0.2226,0.2262,0.2306,0.2344,0.2365,0.2395,0.246,0.2471,0.251,0.2516,0.2508,0.2583,0.2571,0.2536,0.2512,0.257,0.2606,0.2619,0.2442,0.2441,0.244,0.2439,0,0,0.2053,0.2141,0.2148,0.2187,0.2254,0.2286,0.2349,0.2418,0.2468,0.2505,0.2573,0.2614,0.2624,0.2637,0.2637,0.2671,0.275,0.2638,0.2638,0.2682,0.2831,0.2807,0.2818,0.2723,0.2726,0.2728,0.2832,0,0.2074,0.2147,0.2191,0.2263,0.2303,0.2356,0.2413,0.2478,0.2529,0.2597,0.2637,0.2692,0.2668,0.2693,0.2727,0.2739,0.2786,0.2726,0.2764,0.2767,0.2741,0.2834,0.2623,0.2697,0.2845,0.2847,0.2848,0,0.2093,0.2145,0.2212,0.2311,0.2333,0.2379,0.2483,0.2537,0.2637,0.268,0.2751,0.2777,0.2854,0.2809,0.2888,0.2847,0.2858,0.2864,0.2867,0.2833,0.2767,0.266,0.2715,0.287,0.2869,0.2867,0.2865,0,0.2064,0.2162,0.2217,0.2248,0.2354,0.2401,0.2459,0.2559,0.2621,0.2736,0.2793,0.2875,0.2923,0.295,0.2978,0.2933,0.306,0.2987,0.2987,0.2985,0.2811,0.2789,0.306,0.306,0.306,0.306,0.3059,0,0.2069,0.2114,0.2208,0.2238,0.2308,0.2388,0.2472,0.2547,0.2664,0.2745,0.2825,0.2909,0.2959,0.3033,0.3031,0.3071,0.3105,0.3036,0.3023,0.2829,0.2809,0.2951,0.2937,0.3064,0.3063,0.3062,0.3061,0,0.2024,0.2087,0.2152,0.226,0.2293,0.2337,0.2464,0.2526,0.2646,0.2758,0.2801,0.2953,0.3047,0.3106,0.3174,0.3143,0.3176,0.3183,0.2966,0.2927,0.3063,0.3051,0.3179,0.318,0.318,0.318,0.318,0,0.2008,0.2036,0.2137,0.2166,0.2213,0.2292,0.2345,0.2489,0.2566,0.2779,0.2831,0.2989,0.3054,0.3172,0.3189,0.3216,0.3234,0.3026,0.29,0.3107,0.3081,0.3069,0.3057,0.2695,0.2691,0.2688,0.2686,0,0.1968,0.1999,0.2045,0.2105,0.216,0.2223,0.2321,0.2374,0.2548,0.2641,0.2772,0.2844,0.3017,0.2969,0.306,0.3036,0.2998,0.2964,0.3249,0.2702,0.266,0.2631,0.2634,0.2658,0.2661,0.2663,0.2664,0.2665,0.1918,0.1929,0.1986,0.2032,0.2092,0.2132,0.2146,0.2255,0.2335,0.2458,0.2614,0.2658,0.2763,0.2778,0.2738,0.2735,0.2911,0.2765,0.277,0.278,0.2709,0.267,0.2658,0.2661,0.2663,0.2665,0.2667,0,0.1844,0.1869,0.1912,0.1956,0.1974,0.2046,0.2113,0.2107,0.2135,0.2281,0.2358,0.2248,0.227,0.2373,0.2339,0.2371,0.2297,0.2267,0.2142,0.2175,0.2203,0.2097,0.1886,0.1883,0.188,0.1877,0,0,0.1804,0.1804,0.1826,0.1821,0.1855,0.1846,0.1851,0.1855,0.1927,0.1919,0.195,0.2156,0.2297,0.2038,0.2052,0.1956,0.2027,0.1885,0.2526,0.2411,0.2434,0.2527,0.2408,0,0,0,0,0]},{"header":{"parameterUnit":"m.s-1","parameterCategory":2,"la1":30.2991,"la2":30.254,"lo1":-89.0895,"lo2":-89.0444,"dy":0.0017,"dx":0.0017,"nx":28,"ny":28,"refTime":"2024-12-02T09:00:00:Z","depth":"2","parameterNumber":3,"parameterNumberName":"V-component_of_CURRENTS"},"data":[0,0,0,0,0,0,0,0,0,0,0,0,0,0,0,0,0,0,0,0,0,0,0,0,0,0,0,0,0,0,0,0,0,0,0,0,0,0,0,0,0,0,0,0,0,0,0,0,0,0,0,0,0,0,0,0,0,0,-0.0145,-0.0146,0,-0.0209,-0.021,-0.021,-0.0261,-0.0262,-0.0262,-0.0263,-0.0362,-0.0364,-0.0367,0,0,0,0,0,0,0,0,0,0,0,0,0,-0.0114,-0.0114,-0.0145,-0.0146,-0.0146,-0.0209,-0.021,-0.0211,-0.0261,-0.0262,-0.0262,-0.0263,-0.0361,-0.0364,-0.0367,0,0,0,0,0,0,0,0,0,0,0,0,0,-0.0149,-0.0114,-0.0145,-0.0178,-0.0182,-0.0208,-0.021,-0.0211,-0.0261,-0.0262,-0.0263,-0.0263,-0.0361,-0.0364,-0.0367,-0.0375,0,0,-0.0378,-0.0379,0,0,0,0,0,0,0,0,-0.0146,-0.015,-0.0173,-0.0176,-0.018,-0.0227,-0.0235,-0.0267,-0.0261,-0.0232,-0.0263,-0.0263,-0.0319,-0.0326,-0.0337,-0.038,-0.0384,-0.0378,-0.038,-0.0381,-0.0382,0,0,0,0,0,0,0,-0.0144,-0.0148,-0.0171,-0.0173,-0.0178,-0.0207,-0.0212,-0.0242,-0.0273,-0.0235,-0.0238,-0.0244,-0.0322,-0.0334,-0.034,-0.0386,-0.0378,-0.0381,-0.0383,-0.0384,-0.0464,-0.0464,0,0,0,0,0,0,-0.0131,-0.0145,-0.0169,-0.0173,-0.0164,-0.0206,-0.0212,-0.0212,-0.0272,-0.0281,-0.0243,-0.0246,-0.0328,-0.0336,-0.0344,-0.0378,-0.0381,-0.0384,-0.0386,-0.0464,-0.0464,-0.0464,0,0,0,0,0,0,-0.013,-0.0132,-0.0167,-0.016,-0.0166,-0.0206,-0.0205,-0.0213,-0.0231,-0.0278,-0.0288,-0.0253,-0.0329,-0.0339,-0.0374,-0.0382,-0.0386,-0.0389,-0.0464,-0.0464,-0.0464,-0.0434,0,0,0,0,0,0,-0.0129,-0.0131,-0.0129,-0.0159,-0.0166,-0.018,-0.0205,-0.0214,-0.0232,-0.0237,-0.029,-0.0299,-0.033,-0.0368,-0.0377,-0.0387,-0.0392,-0.0464,-0.0464,-0.0464,-0.0435,-0.0433,-0.0431,0,0,0,0,0,-0.0127,-0.0116,-0.0129,-0.0132,-0.0161,-0.018,-0.0186,-0.0217,-0.0232,-0.0236,-0.0274,-0.0298,-0.0376,-0.0371,-0.0381,-0.0392,-0.0464,-0.0464,-0.0464,-0.0435,-0.0433,-0.0431,0,0,0,0,0,0,-0.01,-0.0121,-0.0136,-0.0131,-0.0154,-0.0188,-0.0193,-0.0215,-0.0247,-0.0253,-0.0299,-0.0311,-0.0344,-0.0369,-0.0363,-0.0415,-0.0424,-0.0426,-0.0398,-0.0397,-0.0395,-0.0398,-0.0395,0,0,0,0,0,-0.0093,-0.0093,-0.0119,-0.0118,-0.0125,-0.016,-0.0172,-0.0193,-0.0224,-0.0239,-0.0277,-0.0316,-0.0351,-0.0374,-0.0405,-0.0434,-0.0462,-0.0448,-0.0446,-0.0444,-0.0453,-0.0491,-0.0494,-0.0465,-0.0465,-0.0465,0,0,-0.0083,-0.0094,-0.0096,-0.0113,-0.0133,-0.0137,-0.0169,-0.0183,-0.0194,-0.0244,-0.0271,-0.031,-0.0356,-0.0388,-0.0406,-0.0413,-0.0467,-0.0445,-0.0443,-0.0453,-0.0492,-0.0495,-0.0497,-0.0465,-0.0465,-0.0465,0,0,-0.006,-0.0072,-0.0064,-0.0077,-0.01,-0.0121,-0.0123,-0.0158,-0.018,-0.021,-0.0249,-0.0296,-0.0343,-0.0386,-0.0411,-0.042,-0.0453,-0.0424,-0.0425,-0.0461,-0.0464,-0.0467,-0.0503,-0.0509,-0.0428,-0.0428,-0.0428,0,-0.0048,-0.004,-0.0066,-0.006,-0.0067,-0.011,-0.0103,-0.013,-0.0175,-0.0192,-0.0214,-0.0305,-0.0346,-0.0398,-0.0406,-0.0418,-0.044,-0.0428,-0.0459,-0.0463,-0.0466,-0.0503,-0.051,-0.0426,-0.0426,-0.0427,-0.0427,0,-0.0018,-0.0015,-0.0009,-0.0017,-0.0029,-0.003,-0.0065,-0.0085,-0.0121,-0.0154,-0.0213,-0.0283,-0.0343,-0.0362,-0.0392,-0.0438,-0.0445,-0.0448,-0.0463,-0.0467,-0.0505,-0.0514,-0.0424,-0.0425,-0.0425,-0.0426,0,0,0.0019,0.0014,0.0016,0.0019,-0.0004,-0.0009,-0.0026,-0.0055,-0.0069,-0.0136,-0.0166,-0.0257,-0.0308,-0.0342,-0.0395,-0.0438,-0.0486,-0.0454,-0.0457,-0.0488,-0.0564,-0.0499,-0.0503,-0.0488,-0.0489,-0.049,-0.058,0,0.005,0.0077,0.0058,0.0073,0.0085,0.0044,0.0033,-0.0002,-0.0047,-0.0085,-0.0178,-0.0228,-0.0296,-0.0332,-0.0391,-0.0447,-0.0507,-0.0462,-0.0558,-0.0562,-0.0501,-0.0509,-0.0488,-0.0559,-0.0588,-0.0589,-0.059,0,0.0088,0.0102,0.013,0.0123,0.0123,0.0115,0.0089,0.0074,0.0011,-0.0027,-0.0109,-0.0175,-0.0268,-0.0318,-0.0454,-0.0417,-0.0501,-0.0555,-0.056,-0.0518,-0.0512,-0.0561,-0.0574,-0.0604,-0.0603,-0.0602,-0.0601,0,0.0137,0.0148,0.0173,0.0175,0.0163,0.0153,0.0135,0.0088,0.0094,0.0004,0.0,-0.0136,-0.0181,-0.031,-0.043,-0.0445,-0.0556,-0.0589,-0.0623,-0.062,-0.0632,-0.0626,-0.0705,-0.0705,-0.0705,-0.0705,-0.0704,0,0.0184,0.0201,0.0195,0.021,0.0235,0.0197,0.021,0.0169,0.0142,0.017,0.0029,0.0031,-0.0177,-0.0259,-0.0402,-0.0514,-0.0541,-0.0629,-0.0638,-0.0618,-0.061,-0.0672,-0.0667,-0.0708,-0.0707,-0.0707,-0.0706,0,0.0237,0.0234,0.0266,0.026,0.026,0.0276,0.0286,0.0304,0.0255,0.0287,0.0268,0.0167,0.0064,-0.0131,-0.0318,-0.0444,-0.058,-0.0623,-0.058,-0.0581,-0.0641,-0.0633,-0.0692,-0.0691,-0.069,-0.0688,-0.0687,0,0.0268,0.029,0.0316,0.0346,0.0342,0.0365,0.0395,0.0364,0.0405,0.0398,0.0438,0.0338,0.0307,0.0058,-0.0202,-0.0448,-0.0506,-0.0581,-0.0617,-0.0636,-0.064,-0.0634,-0.0629,-0.0637,-0.0636,-0.0635,-0.0634,0,0.0327,0.0333,0.0364,0.0431,0.0466,0.0526,0.0562,0.0624,0.0618,0.065,0.0706,0.068,0.0436,0.0213,-0.0124,-0.0296,-0.0541,-0.0564,-0.0606,-0.0614,-0.0583,-0.0586,-0.0583,-0.0625,-0.0626,-0.0626,-0.0627,-0.0627,0.0371,0.041,0.0454,0.0521,0.0578,0.0675,0.0741,0.0807,0.0898,0.0955,0.093,0.0895,0.0606,0.02,-0.0097,-0.0434,-0.044,-0.0571,-0.0576,-0.0582,-0.0529,-0.0495,-0.0512,-0.0512,-0.0512,-0.0512,-0.0512,0,0.0431,0.0475,0.0542,0.0626,0.0714,0.0725,0.0853,0.0929,0.1058,0.1105,0.1138,0.0899,0.0634,0.0297,-0.0184,-0.0459,-0.0533,-0.0549,-0.059,-0.0595,-0.0601,-0.0553,-0.0541,-0.0542,-0.0542,-0.0543,0,0,0.0464,0.0544,0.0584,0.0732,0.0796,0.0922,0.1006,0.1112,0.1175,0.1242,0.1219,0.1146,0.0748,0.0406,0.0012,-0.0262,-0.0372,-0.0325,-0.0272,-0.0279,-0.0282,-0.0581,-0.0507,0,0,0,0,0]}],[{"header":{"parameterUnit":"m.s-1","parameterCategory":2,"la1":30.2991,"la2":30.254,"lo1":-89.0895,"lo2":-89.0444,"dy":0.0017,"dx":0.0017,"nx":28,"ny":28,"refTime":"2024-12-02T09:00:00:Z","depth":"4","parameterNumber":2,"parameterNumberName":"U-component_of_CURRENTS"},"data":[0,0,0,0,0,0,0,0,0,0,0,0,0,0,0,0,0,0,0,0,0,0,0,0,0,0,0,0,0,0,0,0,0,0,0,0,0,0,0,0,0,0,0,0,0,0,0,0,0,0,0,0,0,0,0,0,0,0,0.1295,0.1296,0,0.1357,0.1358,0.1358,0.141,0.141,0.1411,0.1412,0.1487,0.1488,0.1489,0,0,0,0,0,0,0,0,0,0,0,0,0,0.1215,0.1216,0.1295,0.1296,0.1297,0.1357,0.1358,0.1358,0.141,0.1411,0.1411,0.1412,0.1486,0.1488,0.149,0,0,0,0,0,0,0,0,0,0,0,0,0,0.1259,0.1217,0.1295,0.1331,0.1335,0.1357,0.1358,0.1359,0.1409,0.1411,0.1412,0.1413,0.1486,0.1488,0.149,0.1481,0,0,0.1496,0.1497,0,0,0,0,0,0,0,0,0.1256,0.1262,0.1325,0.1329,0.1333,0.1378,0.1357,0.1401,0.1409,0.1379,0.1412,0.1413,0.1452,0.1457,0.1464,0.1484,0.1488,0.1496,0.1497,0.1498,0.1499,0,0,0,0,0,0,0,0.1253,0.1259,0.1318,0.1326,0.1331,0.1342,0.1349,0.1365,0.1408,0.1382,0.1386,0.1396,0.1454,0.1461,0.1466,0.1489,0.1496,0.1498,0.1499,0.15,0.1591,0.1592,0,0,0,0,0,0,0.1249,0.1256,0.1316,0.132,0.1299,0.1343,0.1351,0.1361,0.1408,0.1416,0.1395,0.1398,0.1458,0.1463,0.1469,0.1543,0.1498,0.15,0.1501,0.159,0.1591,0.1593,0,0,0,0,0,0,0.1247,0.1253,0.1314,0.1291,0.13,0.1343,0.1355,0.1362,0.1401,0.1417,0.1426,0.1429,0.1459,0.1466,0.1511,0.1543,0.1501,0.1503,0.1588,0.159,0.1592,0.1638,0,0,0,0,0,0,0.1244,0.1252,0.1271,0.1291,0.1301,0.1342,0.1354,0.1363,0.1403,0.1409,0.1449,0.1455,0.146,0.1508,0.1513,0.1545,0.1504,0.1587,0.1589,0.1591,0.1635,0.1641,0.1647,0,0,0,0,0,0.1241,0.1256,0.1271,0.1279,0.1321,0.1343,0.135,0.1382,0.1404,0.1421,0.1455,0.1456,0.1526,0.1511,0.1516,0.155,0.1586,0.1588,0.1591,0.1633,0.164,0.1647,0,0,0,0,0,0,0.123,0.1263,0.128,0.1306,0.1332,0.1353,0.1378,0.1398,0.1437,0.1454,0.147,0.1479,0.1526,0.1532,0.1514,0.1582,0.1556,0.156,0.1586,0.1593,0.1599,0.1566,0.1506,0,0,0,0,0,0.1236,0.1259,0.1287,0.131,0.1327,0.1358,0.1378,0.14,0.1431,0.1451,0.148,0.1511,0.1536,0.1561,0.1577,0.1618,0.1627,0.1643,0.1649,0.1654,0.1631,0.1711,0.1722,0.1602,0.1602,0.1601,0,0,0.1239,0.126,0.1275,0.131,0.1336,0.1358,0.1374,0.1411,0.1437,0.1451,0.1507,0.153,0.1549,0.1592,0.1615,0.1607,0.1691,0.1657,0.1661,0.1635,0.1715,0.1727,0.1737,0.1603,0.1603,0.1603,0,0,0.1241,0.1277,0.1293,0.1318,0.1361,0.1378,0.1396,0.1436,0.1468,0.1513,0.1532,0.1574,0.1617,0.1637,0.1651,0.1698,0.1713,0.1716,0.1729,0.1808,0.1819,0.1828,0.1845,0.1855,0.1728,0.1728,0.1728,0,0.1245,0.1268,0.1302,0.1323,0.1349,0.139,0.1413,0.1444,0.1496,0.1531,0.1538,0.1605,0.1632,0.1673,0.1693,0.171,0.1741,0.1704,0.1817,0.1826,0.1835,0.185,0.1861,0.173,0.173,0.173,0.1729,0,0.125,0.1281,0.1296,0.1336,0.1367,0.1396,0.144,0.1485,0.1529,0.1565,0.1624,0.1645,0.1699,0.1709,0.1717,0.179,0.1786,0.1811,0.1799,0.185,0.1862,0.1873,0.1734,0.1733,0.1732,0.1732,0,0,0.1223,0.1286,0.1294,0.1318,0.1381,0.1401,0.146,0.152,0.1562,0.1612,0.167,0.1705,0.1741,0.1756,0.1775,0.1817,0.1911,0.1846,0.1849,0.1859,0.2056,0.1948,0.1949,0.198,0.1982,0.1984,0.2036,0,0.1219,0.1253,0.1292,0.1335,0.1358,0.1423,0.147,0.1537,0.1592,0.1662,0.1704,0.1761,0.1756,0.1793,0.1844,0.1909,0.1943,0.1891,0.2005,0.2006,0.1904,0.1959,0.1992,0.2044,0.2046,0.2048,0.2049,0,0.1205,0.1233,0.1272,0.1341,0.1361,0.14,0.1488,0.1539,0.1646,0.1692,0.176,0.1809,0.1892,0.1876,0.1993,0.1975,0.2015,0.2029,0.2034,0.1916,0.1918,0.1985,0.2068,0.2067,0.2065,0.2064,0.2063,0,0.1156,0.1218,0.125,0.1274,0.1357,0.1405,0.1465,0.1563,0.1619,0.173,0.1788,0.1878,0.1948,0.2021,0.2088,0.2076,0.2187,0.2194,0.2101,0.2093,0.2153,0.2143,0.225,0.225,0.225,0.2249,0.2249,0,0.1122,0.115,0.1237,0.1252,0.1309,0.1389,0.1457,0.1528,0.1641,0.171,0.182,0.1869,0.1997,0.2083,0.2123,0.2147,0.2244,0.209,0.2108,0.2168,0.2159,0.216,0.2148,0.2251,0.2251,0.2251,0.225,0,0.106,0.1114,0.1157,0.1252,0.1286,0.1337,0.1459,0.1505,0.1624,0.1719,0.1771,0.1918,0.2031,0.211,0.2219,0.2183,0.2216,0.2188,0.2215,0.2236,0.2049,0.204,0.2096,0.2093,0.209,0.2088,0.2086,0,0.1027,0.1041,0.1143,0.1179,0.123,0.131,0.1365,0.1487,0.1541,0.1722,0.1768,0.1919,0.2001,0.206,0.2152,0.2205,0.2177,0.216,0.2105,0.2025,0.2039,0.2034,0.2028,0.2082,0.2081,0.208,0.208,0,0.0965,0.1015,0.1057,0.1125,0.1189,0.1241,0.1338,0.1371,0.1515,0.1627,0.173,0.1804,0.1913,0.1997,0.2044,0.2076,0.2164,0.2131,0.2136,0.2084,0.2009,0.2023,0.2021,0.207,0.2072,0.2072,0.2073,0,0.093,0.0948,0.1012,0.1069,0.1139,0.1179,0.1227,0.1308,0.1382,0.1583,0.1606,0.177,0.1889,0.193,0.1985,0.2008,0.1981,0.1909,0.1925,0.1936,0.1863,0.1743,0.1734,0,0,0,0,0,0.0885,0.0905,0.0949,0.101,0.1075,0.1119,0.1214,0.1267,0.1399,0.1435,0.1522,0.1618,0.1714,0.1798,0.1795,0.192,0.1986,0.1906,0.1909,0.2018,0.2029,0.196,0,0,0,0,0,0,0.0861,0.0902,0.0922,0.095,0.0983,0.1042,0.1103,0.1189,0.1219,0.136,0.1427,0.1526,0.1649,0.171,0.1769,0.1793,0.1763,0.2002,0.1998,0.2012,0.2022,0.2031,0.1963,0,0,0,0,0]},{"header":{"parameterUnit":"m.s-1","parameterCategory":2,"la1":30.2991,"la2":30.254,"lo1":-89.0895,"lo2":-89.0444,"dy":0.0017,"dx":0.0017,"nx":28,"ny":28,"refTime":"2024-12-02T09:00:00:Z","depth":"4","parameterNumber":3,"parameterNumberName":"V-component_of_CURRENTS"},"data":[0,0,0,0,0,0,0,0,0,0,0,0,0,0,0,0,0,0,0,0,0,0,0,0,0,0,0,0,0,0,0,0,0,0,0,0,0,0,0,0,0,0,0,0,0,0,0,0,0,0,0,0,0,0,0,0,0,0,0.0108,0.0107,0,0.0067,0.0066,0.0066,0.0035,0.0035,0.0035,0.0035,-0.0039,-0.0041,-0.0042,0,0,0,0,0,0,0,0,0,0,0,0,0,0.0119,0.0119,0.0108,0.0107,0.0107,0.0067,0.0066,0.0066,0.0035,0.0035,0.0035,0.0035,-0.0038,-0.004,-0.0042,0,0,0,0,0,0,0,0,0,0,0,0,0,0.0099,0.0119,0.0108,0.0088,0.0085,0.0067,0.0066,0.0065,0.0036,0.0035,0.0035,0.0035,-0.0038,-0.004,-0.0043,-0.0053,0,0,-0.0051,-0.0052,0,0,0,0,0,0,0,0,0.01,0.0099,0.0091,0.0089,0.0086,0.0057,0.0043,0.0024,0.0036,0.0054,0.0035,0.0034,-0.0009,-0.0014,-0.0022,-0.0057,-0.006,-0.0051,-0.0053,-0.0054,-0.0055,0,0,0,0,0,0,0,0.0102,0.01,0.0091,0.0091,0.0088,0.0066,0.0064,0.0039,0.0023,0.0052,0.005,0.0047,-0.0011,-0.0019,-0.0024,-0.0061,-0.0051,-0.0053,-0.0055,-0.0056,-0.0105,-0.0104,0,0,0,0,0,0,0.0111,0.0102,0.0092,0.009,0.0094,0.0067,0.0063,0.0066,0.0024,0.0018,0.0047,0.0045,-0.0015,-0.0021,-0.0027,-0.0016,-0.0054,-0.0056,-0.0058,-0.0105,-0.0105,-0.0104,0,0,0,0,0,0,0.0111,0.0111,0.0094,0.0095,0.0091,0.0067,0.007,0.0065,0.0057,0.0021,0.0014,0.0044,-0.0015,-0.0023,-0.0042,-0.002,-0.0058,-0.006,-0.0105,-0.0105,-0.0104,-0.0012,0,0,0,0,0,0,0.0112,0.0111,0.0115,0.0096,0.0092,0.0091,0.007,0.0065,0.0056,0.0053,0.0015,0.0008,-0.0016,-0.0038,-0.0045,-0.0025,-0.0062,-0.0106,-0.0105,-0.0105,-0.0015,-0.0008,-0.0002,0,0,0,0,0,0.0113,0.0125,0.0116,0.0114,0.0098,0.0092,0.0088,0.0069,0.0056,0.0059,0.0032,0.0009,-0.0039,-0.004,-0.0048,-0.0028,-0.0106,-0.0105,-0.0105,-0.0018,-0.001,-0.0003,0,0,0,0,0,0,0.0132,0.0123,0.0112,0.0121,0.0109,0.0087,0.0088,0.0072,0.0053,0.0049,0.0012,0.0004,-0.0005,-0.0034,-0.0034,-0.0043,-0.0076,-0.0077,-0.0008,-0.0,0.0006,0.0057,-0.0064,0,0,0,0,0,0.0139,0.0146,0.013,0.0136,0.0133,0.0109,0.0103,0.0091,0.0071,0.0063,0.0036,0.0008,-0.0009,-0.0018,-0.0044,-0.0048,-0.0075,-0.0042,-0.0036,-0.003,0.0005,-0.0034,-0.0027,-0.0102,-0.0102,-0.0102,0,0,0.0148,0.0144,0.0147,0.0141,0.0129,0.0141,0.0105,0.0102,0.0113,0.0057,0.006,0.0027,-0.0008,-0.0009,-0.0016,-0.0029,-0.0026,-0.0029,-0.0023,0.0009,-0.0032,-0.0025,-0.0018,-0.0101,-0.0102,-0.0102,0,0,0.0178,0.0167,0.0185,0.0182,0.0171,0.0161,0.0162,0.0142,0.0135,0.0128,0.0096,0.0084,0.0044,0.004,0.0029,0.0055,0.0006,0.0034,0.0116,0.0078,0.0084,0.009,0.0057,0.0059,0.0042,0.0042,0.0043,0,0.0189,0.0213,0.0189,0.0207,0.0214,0.0176,0.0202,0.0191,0.0167,0.0171,0.014,0.0115,0.0077,0.0103,0.0113,0.0075,0.0042,0.0092,0.0089,0.0094,0.0098,0.0063,0.0064,0.0047,0.0046,0.0046,0.0045,0,0.0234,0.0254,0.0265,0.028,0.0282,0.0297,0.0282,0.0281,0.0261,0.025,0.0256,0.0215,0.0205,0.0188,0.0161,0.0182,0.0144,0.0098,0.0076,0.0111,0.0071,0.0071,0.0053,0.0052,0.005,0.0049,0,0,0.0261,0.0293,0.0297,0.0324,0.0325,0.0335,0.0356,0.037,0.0394,0.0364,0.0395,0.0373,0.0348,0.0336,0.0299,0.0281,0.0269,0.0214,0.021,0.0197,0.0186,0.012,0.0112,0.0214,0.0215,0.0215,0.0144,0,0.0307,0.0364,0.0367,0.0425,0.0455,0.044,0.0467,0.0471,0.0462,0.0474,0.0445,0.0447,0.0403,0.0398,0.0379,0.0285,0.0273,0.0294,0.0143,0.014,0.0088,0.0112,0.0217,0.0144,0.0143,0.0143,0.0143,0,0.0352,0.0389,0.0455,0.051,0.0522,0.0552,0.0594,0.0613,0.0618,0.0607,0.0612,0.0569,0.0556,0.0498,0.0404,0.0412,0.0327,0.0259,0.0252,0.0168,0.0073,0.01,0.0141,0.0141,0.0141,0.0142,0.0142,0,0.0387,0.0451,0.0511,0.0528,0.0579,0.0612,0.0639,0.0658,0.0676,0.0693,0.0691,0.067,0.0633,0.0547,0.04,0.0394,0.0276,0.0233,0.011,0.0104,0.0144,0.0139,0.0188,0.0189,0.0189,0.0189,0.0189,0,0.0434,0.0483,0.0536,0.0571,0.0642,0.0663,0.0734,0.0749,0.0775,0.0794,0.0764,0.0756,0.0638,0.0544,0.0429,0.0262,0.0287,0.0146,0.0088,0.0181,0.0181,0.0143,0.0138,0.0186,0.0187,0.0187,0.0188,0,0.0457,0.0494,0.0563,0.0634,0.066,0.0707,0.0776,0.0818,0.0837,0.0859,0.0857,0.0798,0.0668,0.0544,0.0378,0.0276,0.0136,0.0074,0.0197,0.0142,-0.0011,-0.001,-0.0057,-0.006,-0.0062,-0.0064,-0.0066,0,0.0474,0.0513,0.0596,0.0633,0.0669,0.0743,0.0789,0.0838,0.0871,0.0871,0.087,0.077,0.0706,0.0445,0.0308,0.0098,0.0062,-0.0001,0.0008,0.002,-0.0033,-0.0028,-0.0024,-0.007,-0.007,-0.0071,-0.0071,0,0.0498,0.0523,0.0574,0.0647,0.0706,0.0775,0.0842,0.0865,0.0906,0.0922,0.0859,0.0737,0.0589,0.0412,0.0245,0.0095,0.0045,-0.0026,-0.0022,-0.0014,0.0004,-0.0045,-0.0038,-0.008,-0.0078,-0.0078,-0.0077,0,0.05,0.0528,0.0586,0.0648,0.0719,0.0777,0.0823,0.0851,0.0881,0.0878,0.0848,0.0712,0.0643,0.0407,0.0253,0.0097,0.0058,0.0013,0.0015,0.0022,0.0058,0.0093,0.0005,0,0,0,0,0,0.0496,0.0523,0.0581,0.0647,0.0717,0.0761,0.0839,0.0879,0.0914,0.0864,0.0858,0.072,0.0483,0.0396,0.0226,0.0201,0.0029,-0.0004,-0.0021,-0.0125,-0.0115,-0.0093,0,0,0,0,0,0,0.0491,0.0541,0.057,0.0631,0.0674,0.0752,0.0804,0.0833,0.0813,0.0824,0.0706,0.0659,0.0439,0.057,0.0214,0.017,0.0131,-0.0102,-0.0106,-0.013,-0.0122,-0.0114,-0.0088,0,0,0,0,0]}]]